Simultaneous Nadir Overpasses (SNOs) Predictions

Prediction of SNOs between METOP-A and NOAA-19 Satellite Orbit:

Table of predicted SNOs for the next 14.0 days since TLE Epoch: 4/12/2019
Index Date (METOP-A) Time (METOP-A) Lat,Lon (METOP-A) SZA (METOP-A ) Date (NOAA-19) Time (NOAA-19) Lat,Lon (NOAA-19) SZA (NOAA-19 ) Distance(km) Time Diff (sec)
1 04/22/2019 10:19:24 -79.57,-143.20 112.43 04/22/2019 10:18:10 -79.56,-143.23 112.45 1.37 74
2 04/22/2019 11:10:04 79.56, 24.06 67.55 04/22/2019 11:09:16 79.55, 24.01 67.54 1.08 48
3 04/22/2019 12:00:46 -79.55,-168.71 112.48 04/22/2019 12:00:11 -79.56,-168.77 112.47 1.89 35
4 04/22/2019 12:51:26 79.54, -1.45 67.50 04/22/2019 12:51:17 79.56, -1.52 67.52 2.66 9
5 04/22/2019 13:42:07 -79.56, 166.05 112.49 04/22/2019 13:42:11 -79.53, 165.99 112.51 2.90 4
6 04/22/2019 14:32:47 79.55, -26.69 67.50 04/22/2019 14:33:17 79.53, -26.76 67.48 2.41 30
7 04/22/2019 15:23:29 -79.54, 140.53 112.54 04/22/2019 15:24:12 -79.54, 140.45 112.53 1.64 43
8 04/22/2019 16:14:09 79.53, -52.20 67.44 04/22/2019 16:15:18 79.53, -52.30 67.46 2.07 69




NCC Satellite Simultaneous Nadir Overpasses (SNOs) Prediction Service
